CAPE
0 0 0 0 0 0 0 0 0 0 0 0 0 0 1 8 8 6 10 5 1 5
0 0 0 0 0 0 0 0 0 0 0 0 0 0 0 1 2 3 7 8 6 4
0 0 0 0 0 0 0 0 0 0 0 0 0 0 0 0 3 1 5 4 2 2
0 0 0 0 0 0 0 0 0 0 0 0 0 0 0 0 0 0 0 0 0 0
0 0 0 0 0 0 0 0 0 0 0 0 0 0 0 0 0 0 0 0 0 0
0 0 0 0 0 0 0 0 0 0 0 0 0 0 0 0 0 0 0 0 0 0
0 0 0 0 0 0 0 0 0 0 0 0 0 0 0 0 0 0 0 0 0 0
0 0 0 0 0 0 0 0 0 0 0 0 0 0 0 0 0 0 0 0 0 0
0 0 0 0 0 0 0 0 0 0 0 0 0 0 0 0 0 0 0 0 0 0
0 0 0 0 0 0 0 0 0 0 0 0 0 0 1 0 0 0 0 0 0 0
0 0 0 0 0 0 0 0 0 0 0 0 0 0 0 0 0 0 0 0 0 0
0 0 0 0 0 0 0 0 0 0 0 0 0 0 0 0 0 0 0 0 0 0
0 0 0 0 0 0 0 0 0 0 0 0 0 0 0 0 0 0 0 0 0 0
0 0 0 0 0 0 0 0 0 0 0 0 0 0 0 0 0 0 0 0 0 0
CIN
0 0 0 0 0 0 0 0 0 0 0 0 0 0 0 0 0 0 0 0 0 0
0 0 0 0 0 0 0 0 0 0 0 0 0 0 0 0 0 0 0 0 0 0
0 0 0 0 0 0 0 0 0 0 0 0 0 0 0 0 0 0 0 0 0 0
0 0 0 0 0 0 0 0 0 0 0 0 0 0 0 0 0 0 0 0 0 0
0 0 0 0 0 0 0 0 0 0 0 0 0 0 0 0 0 0 0 0 0 0
0 0 0 0 0 0 0 0 0 0 0 0 0 0 0 0 0 0 0 0 0 0
0 0 0 0 0 0 0 0 0 0 0 0 0 0 0 0 0 0 0 0 0 0
0 0 0 0 0 0 0 0 0 0 0 0 0 0 0 0 0 0 0 0 0 0
0 0 0 0 0 0 0 0 0 0 0 0 0 0 0 0 0 0 0 0 0 0
0 0 0 0 0 0 0 0 0 0 0 0 0 0 0 0 0 0 0 0 0 0
0 0 0 0 0 0 0 0 0 0 0 0 0 0 0 0 0 0 0 0 0 0
0 0 0 0 0 0 0 0 0 0 0 0 0 0 0 0 0 0 0 0 0 0
0 0 0 0 0 0 0 0 0 0 0 0 0 0 0 0 0 0 0 0 0 0
0 0 0 0 0 0 0 0 0 0 0 0 0 0 0 0 0 0 0 0 0 0
Wind_Speed
3 3 3 4 4 4 5 6 8 8 8 9 9 9 9 6 7 8 7 9 8 7
3 3 3 4 4 4 6 6 8 9 9 9 9 9 9 6 7 7 6 6 6 6
4 3 4 4 5 6 6 7 8 9 9 9 9 9 9 7 7 7 5 4 5 6
5 4 4 4 4 4 5 5 6 7 8 8 8 8 8 7 7 7 6 6 6 6
6 5 5 4 3 4 5 5 6 6 7 7 7 7 7 6 6 6 6 6 6 7
8 7 5 4 4 4 4 4 4 5 6 6 6 6 7 7 6 5 6 6 7 8
10 8 7 5 4 4 4 4 4 4 4 5 5 6 6 6 6 6 5 6 6 8
9 8 8 6 5 4 4 3 4 4 3 3 3 5 7 7 5 6 6 5 6 5
11 10 10 8 7 5 5 4 4 3 3 2 1 4 6 7 5 6 6 6 7 7
11 10 9 9 8 7 7 5 5 5 4 4 1 2 5 6 4 4 5 6 6 7
10 10 9 8 7 7 5 6 5 4 4 5 2 2 1 4 4 3 4 5 6 7
11 10 9 9 9 6 5 6 5 5 5 6 5 4 1 4 3 4 3 4 4 4
9 11 11 9 7 6 4 5 4 4 5 6 6 4 1 3 5 5 4 4 5 4
10 10 9 7 5 5 5 4 4 5 5 6 7 4 3 4 5 4 4 4 3 4
Wind_Direction
310 333 335 347 342 338 341 343 344 345 345 352 350 352 356 356 350 351 2 7 358 346
265 293 304 315 325 334 335 333 340 337 339 344 345 348 346 351 356 350 3 17 9 0
237 265 299 310 323 331 334 337 335 340 340 342 345 349 344 348 352 352 4 4 0 6
226 233 267 289 313 323 321 337 336 338 339 343 346 350 345 346 356 352 4 7 1 5
219 227 237 254 283 308 317 325 334 334 337 341 345 349 348 347 354 355 1 6 2 7
208 217 233 236 255 273 298 312 322 332 339 343 341 354 350 345 350 356 3 8 7 9
205 206 215 222 242 262 291 299 313 319 331 337 345 5 355 350 350 353 7 5 8 15
211 198 199 205 223 244 260 275 289 295 306 336 344 30 354 340 345 351 349 360 357 34
207 198 198 197 202 223 240 249 253 265 282 289 349 32 15 352 348 350 353 349 347 343
211 202 197 195 195 208 221 223 229 230 243 247 226 64 14 357 333 345 341 343 341 335
206 207 191 188 192 207 217 219 223 225 237 252 215 250 167 335 313 330 322 334 342 341
201 200 180 187 197 195 204 219 213 224 213 238 249 154 227 291 312 300 327 338 339 350
193 187 193 196 195 165 189 229 186 226 234 240 269 177 257 258 301 303 328 320 333 350
195 194 179 161 150 165 177 229 218 216 226 221 230 235 211 280 290 298 317 307 325 343